TimeEST,TemperatureF,Dew PointF,Humidity,Sea Level PressureIn,VisibilityMPH,Wind Direction,Wind SpeedMPH,Gust SpeedMPH,PrecipitationIn,Events,Conditions,WindDirDegrees,DateUTC
12:53 AM,53.1,30.9,43,30.16,10.0,North,18.4,25.3,N/A,,Clear,350,2012-02-12 05:53:00
1:53 AM,51.1,27.0,39,30.18,10.0,North,17.3,25.3,N/A,,Clear,360,2012-02-12 06:53:00
2:53 AM,48.9,27.0,43,30.19,10.0,North,16.1,21.9,N/A,,Clear,10,2012-02-12 07:53:00
3:53 AM,46.9,27.0,46,30.22,10.0,NNE,11.5,21.9,N/A,,Clear,20,2012-02-12 08:53:00
4:53 AM,44.1,18.0,35,30.23,10.0,North,13.8,20.7,N/A,,Clear,10,2012-02-12 09:53:00
5:53 AM,42.1,17.1,37,30.26,10.0,North,13.8,20.7,N/A,,Clear,10,2012-02-12 10:53:00
6:53 AM,39.9,19.9,45,30.28,10.0,NNE,13.8,20.7,N/A,,Clear,30,2012-02-12 11:53:00
7:53 AM,39.0,19.0,45,30.32,10.0,North,13.8,19.6,N/A,,Clear,10,2012-02-12 12:53:00
8:53 AM,39.0,15.1,38,30.34,10.0,NE,12.7,23.0,N/A,,Clear,40,2012-02-12 13:53:00
9:53 AM,39.9,17.1,40,30.36,10.0,NNE,13.8,20.7,N/A,,Clear,30,2012-02-12 14:53:00
10:53 AM,44.1,19.0,37,30.35,10.0,NNE,10.4,-,N/A,,Clear,20,2012-02-12 15:53:00
11:53 AM,48.0,18.0,30,30.34,10.0,NNE,10.4,18.4,N/A,,Clear,20,2012-02-12 16:53:00
12:53 PM,51.1,18.0,27,30.30,10.0,NNE,8.1,17.3,N/A,,Clear,20,2012-02-12 17:53:00
1:53 PM,53.1,17.1,24,30.26,10.0,North,9.2,-,N/A,,Clear,360,2012-02-12 18:53:00
2:53 PM,53.1,17.1,24,30.26,10.0,Variable,6.9,18.4,N/A,,Clear,0,2012-02-12 19:53:00
3:53 PM,54.0,12.9,20,30.23,10.0,NNE,11.5,-,N/A,,Clear,20,2012-02-12 20:53:00
4:53 PM,54.0,18.0,24,30.25,10.0,North,8.1,-,N/A,,Clear,10,2012-02-12 21:53:00
5:53 PM,52.0,16.0,24,30.25,10.0,NNE,9.2,-,N/A,,Clear,30,2012-02-12 22:53:00
6:53 PM,48.9,18.0,29,30.26,10.0,NNE,3.5,-,N/A,,Clear,20,2012-02-12 23:53:00
7:53 PM,46.0,21.0,37,30.29,10.0,NNE,4.6,-,N/A,,Clear,20,2012-02-13 00:53:00
8:53 PM,45.0,21.0,39,30.30,10.0,NNE,4.6,-,N/A,,Clear,20,2012-02-13 01:53:00
9:53 PM,43.0,23.0,45,30.31,10.0,NE,5.8,-,N/A,,Clear,40,2012-02-13 02:53:00
10:53 PM,43.0,23.0,45,30.30,10.0,NNE,3.5,-,N/A,,Clear,30,2012-02-13 03:53:00
11:53 PM,41.0,24.1,51,30.29,10.0,NNE,5.8,-,N/A,,Clear,30,2012-02-13 04:53:00